GFSSW_850_temp_000.txt.gz
Temp
8 8 8 9 11 13 14 15 15 15 15 15 15 16 16 17 18 18 19 19 19 19 20 20 20 20 21 22 21 22 22 23 26 26 25 25 24 24 23 23 22 21 20 19 19
9 9 9 10 12 12 14 14 14 15 15 15 15 16 16 17 18 19 19 19 19 19 19 20 21 21 22 23 23 23 23 24 24 26 24 24 24 23 23 22 21 19 18 18 19
9 10 10 11 12 12 14 14 14 14 15 15 16 16 17 17 18 19 19 19 19 19 18 19 20 21 23 23 24 25 23 24 24 24 25 24 24 23 23 21 21 19 18 18 19
10 11 11 12 12 13 13 14 14 14 15 16 16 17 17 17 21 19 19 19 19 19 18 20 21 22 23 23 24 23 24 24 23 22 24 24 24 23 23 22 22 20 18 18 18
11 12 12 12 13 13 13 14 14 15 15 16 16 17 18 18 19 19 19 19 19 18 19 20 22 23 23 25 24 23 24 23 22 22 23 24 22 22 21 20 19 18 18 18 18
11 12 12 13 13 14 14 14 15 15 16 16 16 17 18 20 19 19 18 18 17 18 20 20 22 23 23 24 24 25 23 23 21 22 23 23 22 21 21 18 17 17 17 17 17
12 12 13 13 14 14 14 15 15 15 16 16 17 17 17 19 19 17 18 17 18 18 20 20 20 22 23 23 23 24 22 22 22 22 22 22 20 19 21 18 17 16 17 17 16
13 13 13 14 14 14 15 15 15 16 16 16 17 17 19 19 19 18 17 18 18 18 18 19 20 21 22 22 23 23 23 20 22 22 22 21 19 21 21 18 18 17 17 17 16
13 13 14 14 15 15 15 16 16 16 16 17 17 17 20 19 18 18 17 19 18 18 18 19 20 21 21 21 21 22 21 22 21 23 22 20 20 23 20 18 18 18 18 17 16
14 14 14 14 15 15 16 16 17 17 17 17 17 17 18 19 18 18 18 18 18 19 19 19 20 20 20 20 20 22 21 23 23 22 22 20 19 20 19 18 18 19 18 18 17
15 15 14 15 15 15 16 16 17 17 17 18 19 20 19 19 18 18 18 18 18 19 20 20 20 20 22 22 23 24 23 23 25 24 21 21 21 21 21 18 18 18 19 19 18
15 15 15 15 15 15 16 16 16 16 16 19 19 19 19 19 19 19 18 19 19 19 21 21 19 22 25 24 23 23 22 22 24 22 22 21 21 22 22 20 18 18 18 19 18
15 15 15 15 15 16 16 16 16 16 16 20 18 18 19 18 20 21 18 19 21 21 22 21 23 24 23 23 23 22 22 22 23 22 22 20 19 20 22 24 21 18 18 19 19
15 15 15 15 16 15 16 16 16 16 17 19 18 18 18 18 19 20 19 20 21 21 22 23 24 22 22 22 23 21 23 23 22 21 19 20 18 21 22 21 22 22 19 19 19
15 15 15 15 16 16 16 16 16 15 18 20 19 18 19 19 18 18 18 19 19 21 22 22 20 20 21 22 23 22 21 21 21 20 19 20 18 20 24 23 22 22 23 19 19
14 15 15 15 15 15 16 16 16 17 19 20 19 18 19 19 20 17 17 17 19 20 21 21 21 21 21 23 22 20 20 20 19 18 16 19 20 20 22 24 23 23 23 22 19
14 14 15 15 14 15 16 16 17 18 22 21 20 20 19 21 20 19 18 18 18 17 18 21 21 21 22 19 19 19 19 17 16 15 16 22 21 22 25 25 25 23 23 21 19
14 14 15 15 16 16 15 17 16 22 24 23 21 21 20 21 21 21 19 18 19 20 20 20 20 20 21 20 18 17 18 17 18 18 20 20 18 21 24 23 23 22 22 20 19
14 14 14 14 15 15 15 16 20 22 22 21 21 20 21 21 22 21 20 20 21 20 19 21 21 23 21 21 21 19 17 19 19 20 18 20 22 23 24 19 20 21 20 19 17
13 14 14 15 14 14 15 16 19 21 20 21 19 21 21 23 21 21 21 22 21 22 21 22 20 23 20 20 20 20 20 17 16 17 17 20 20 20 24 20 18 17 18 19 17
12 14 14 14 13 14 15 17 18 19 20 19 19 18 18 19 20 21 22 23 22 22 22 21 20 20 16 17 18 17 17 18 19 18 17 18 19 24 23 23 19 17 19 18 17
10 14 13 13 14 15 16 17 18 19 19 19 18 18 18 18 18 19 19 22 23 23 21 22 20 18 17 19 19 19 19 19 18 18 19 19 20 23 23 22 22 21 20 18 17
9 11 12 12 13 15 17 17 18 18 18 18 17 18 19 17 16 18 19 20 20 20 20 20 19 17 18 17 18 17 19 19 19 18 18 18 20 21 21 20 21 21 21 19 17
9 12 14 12 13 13 13 15 15 16 16 14 14 15 15 15 16 15 16 18 13 18 20 18 18 18 17 19 18 16 18 19 19 17 18 18 19 20 19 19 18 20 21 19 17
9 12 11 12 12 13 13 13 13 14 15 15 15 14 13 12 12 11 13 13 14 13 15 16 16 18 19 20 21 20 19 18 18 18 18 19 19 21 21 19 19 20 19 19 17
7 7 6 7 9 10 11 12 12 13 14 14 13 14 13 12 11 10 9 10 10 10 8 9 11 14 17 19 19 19 20 20 18 18 18 19 19 21 22 23 22 21 20 18 18
6 5 5 6 8 9 10 11 12 12 12 12 12 12 12 12 12 11 8 7 7 7 5 5 7 9 11 16 18 17 19 20 20 19 18 17 19 19 19 19 21 22 21 20 19

GFSSW_850_temp_006.txt.gz
Temp
8 8 9 10 11 14 14 15 15 15 15 16 16 17 18 18 18 18 19 20 20 20 20 20 21 20 21 22 22 21 17 18 22 20 22 23 22 23 23 21 21 21 21 21 18
8 9 9 10 11 13 14 14 15 15 15 15 16 17 17 18 18 19 19 19 20 20 20 20 20 20 21 21 22 19 16 19 21 21 20 22 22 22 21 19 18 19 21 20 18
9 9 10 11 11 12 13 14 14 14 15 15 16 16 17 18 18 20 20 20 20 20 19 20 20 20 21 21 21 20 17 20 22 22 22 22 22 22 20 18 19 19 20 19 19
10 10 11 11 12 13 13 14 14 14 15 15 16 16 17 17 19 19 20 20 20 19 19 20 20 20 20 20 22 21 21 22 22 23 23 20 22 21 22 22 23 21 21 20 19
11 11 12 12 12 13 14 14 14 15 15 16 16 16 17 17 19 19 19 19 19 19 19 19 20 20 20 20 21 20 21 22 22 22 22 22 21 21 20 22 22 21 20 19 19
12 12 12 13 13 14 14 14 15 15 15 16 16 17 17 17 19 19 19 19 19 19 19 19 20 20 20 21 20 22 21 21 21 21 21 20 20 20 21 20 22 21 20 20 19
12 12 13 13 13 14 14 15 15 15 16 16 16 17 17 19 19 19 19 19 19 19 19 19 19 20 20 21 22 21 20 19 19 20 19 20 18 17 21 19 20 19 20 19 19
13 13 13 13 14 14 15 15 15 16 16 16 16 16 18 19 18 19 19 18 18 18 18 18 19 19 20 21 21 20 18 17 17 18 20 20 15 17 20 18 18 18 19 19 19
14 14 14 14 15 15 15 16 16 16 16 16 16 15 17 18 18 19 18 18 18 18 18 18 18 19 20 16 15 16 15 15 17 17 18 17 16 17 20 18 18 18 18 18 18
15 15 15 15 16 16 16 17 17 16 16 16 16 15 17 18 19 18 18 18 18 18 18 18 18 15 13 13 14 15 15 15 17 18 16 15 16 16 18 16 17 18 18 18 18
15 15 15 15 16 16 16 17 17 16 16 18 17 18 19 18 18 18 18 17 18 18 15 17 14 13 14 14 16 16 16 17 18 19 16 16 17 17 17 15 15 16 16 18 19
15 15 16 16 16 16 16 15 15 15 14 18 17 17 18 18 18 18 17 17 17 14 15 15 13 16 15 15 15 16 16 15 16 18 17 16 16 17 15 15 16 17 16 18 18
15 16 16 16 16 16 16 15 15 15 14 16 17 18 18 18 18 18 18 17 16 15 14 13 15 17 16 16 16 16 16 16 17 19 17 17 16 16 16 17 18 18 18 18 19
15 16 16 16 16 16 16 15 15 15 11 15 17 18 18 18 18 18 18 18 17 15 14 14 17 17 16 16 17 16 17 18 18 17 15 16 17 15 16 16 15 17 18 17 18
15 15 16 17 16 16 16 16 16 15 15 18 17 17 18 18 18 17 18 18 16 16 17 15 18 15 16 18 17 17 17 17 18 16 16 16 14 17 16 16 17 17 20 21 19
14 15 15 16 16 16 16 16 16 13 15 18 17 17 16 17 17 17 18 17 17 16 15 15 18 18 17 18 18 18 18 14 12 12 13 16 15 19 17 18 20 21 22 22 21
15 15 15 15 15 15 16 16 13 13 18 18 18 16 16 16 16 15 15 15 14 14 13 14 16 17 19 18 17 17 14 13 13 12 14 15 14 19 17 17 17 19 23 23 22
15 15 15 14 14 15 15 13 15 16 17 17 17 17 16 16 15 16 14 13 13 14 12 14 16 15 16 18 17 14 15 13 13 13 17 14 14 18 16 21 22 21 24 23 22
15 15 14 13 14 15 15 11 13 15 16 15 15 16 16 17 17 16 13 13 14 13 13 13 14 16 17 19 18 16 14 16 15 14 12 13 14 17 16 16 16 18 21 23 23
14 13 13 14 14 14 11 11 13 15 14 15 14 15 14 15 14 14 15 16 16 14 16 14 14 17 18 17 17 16 15 14 12 14 13 15 14 16 17 20 19 15 16 23 23
13 13 12 13 13 14 9 9 13 14 13 13 13 13 13 13 14 14 14 15 12 13 14 14 13 15 16 15 15 14 15 14 13 12 15 16 17 14 19 18 17 16 19 22 22
12 9 12 13 12 8 9 12 13 12 13 13 13 12 12 11 11 12 13 14 11 10 10 11 11 12 15 17 17 17 17 17 15 15 10 16 18 19 16 16 16 19 21 21 20
11 11 12 12 7 6 8 10 11 10 11 12 11 12 11 11 10 12 11 12 10 10 9 10 10 10 12 14 13 12 14 14 15 16 16 15 17 18 18 18 20 17 20 22 21
10 5 11 11 8 6 5 7 8 10 10 9 10 9 8 8 9 9 10 10 9 10 11 9 8 10 10 9 6 7 6 9 8 13 15 16 17 18 17 15 16 19 22 22 21
8 5 5 3 4 4 5 6 7 7 8 8 8 7 7 6 7 8 8 8 9 9 7 8 7 8 7 8 9 8 8 6 6 7 7 9 13 18 19 18 19 19 20 19 18
6 5 5 4 4 4 4 6 7 7 6 6 6 6 6 5 6 5 6 6 6 8 7 6 6 8 7 8 8 8 8 8 7 8 9 12 12 16 18 18 18 19 18 20 20
4 3 4 4 4 3 3 5 5 5 5 7 5 5 5 6 6 7 7 7 6 6 6 6 6 4 6 8 8 7 9 8 10 11 10 8 9 10 8 10 15 17 17 18 21

GFSSW_850_temp_012.txt.gz
Temp
8 8 9 9 10 12 13 14 14 15 15 15 15 16 16 17 18 18 19 19 19 20 20 21 21 21 21 21 21 20 16 17 19 18 20 21 20 22 22 21 20 21 21 21 20
8 8 9 10 11 13 14 14 14 14 14 15 15 16 16 17 18 19 19 19 19 19 20 20 20 20 20 20 20 18 15 17 18 18 19 21 21 21 21 19 19 20 21 21 19
9 10 11 11 12 13 13 14 14 14 14 15 15 16 16 17 18 19 19 19 19 19 19 19 19 19 20 20 20 17 16 17 20 21 21 20 19 21 20 17 21 23 23 21 20
11 11 11 12 13 13 13 14 14 14 14 15 15 16 16 17 19 19 19 19 19 19 19 19 19 19 18 18 19 19 19 19 21 21 21 19 20 19 20 23 24 24 23 22 21
12 12 12 13 13 13 13 14 14 14 15 15 16 16 17 17 18 19 19 19 19 19 19 18 19 19 18 18 19 18 18 20 21 21 21 20 20 19 20 23 23 23 22 21 21
12 13 13 13 13 14 14 14 15 15 15 16 16 16 17 16 18 18 19 19 18 18 18 18 18 18 18 18 18 19 19 19 20 20 20 19 19 19 21 23 22 22 22 22 22
13 13 13 13 14 14 15 15 15 15 16 16 16 16 17 19 18 19 19 19 18 18 18 18 18 18 18 17 19 19 17 16 17 18 18 19 16 15 20 22 22 22 22 21 22
13 13 14 14 14 15 15 15 15 15 15 15 16 16 18 18 18 18 18 18 18 18 18 17 18 18 18 18 18 17 17 16 16 16 18 19 17 16 21 20 21 21 21 21 21
14 14 14 15 15 15 16 16 16 16 16 16 16 16 18 18 18 18 18 17 17 17 17 17 17 17 18 14 14 12 14 14 14 15 17 16 15 16 20 18 18 20 21 21 21
15 15 15 15 16 16 16 16 16 16 16 16 16 16 18 18 18 18 18 17 17 17 17 17 17 13 10 13 13 13 13 13 14 16 15 14 13 15 18 17 18 20 19 19 20
15 15 15 16 16 16 16 16 16 16 15 17 17 17 17 17 17 17 17 17 17 17 14 15 12 12 12 12 15 15 14 13 14 15 15 13 14 15 17 15 16 19 20 20 20
14 15 15 16 16 16 16 16 15 15 15 16 16 16 16 17 17 17 17 17 16 14 14 12 11 13 13 13 13 13 13 13 13 14 14 13 15 16 16 15 17 18 19 21 21
14 15 16 16 16 16 15 15 14 15 13 16 16 16 17 17 16 17 17 16 15 13 12 11 14 14 13 14 13 13 12 13 14 13 13 14 16 16 14 16 16 17 20 21 20
14 15 16 16 16 16 15 15 14 14 11 15 16 16 17 17 16 17 17 17 15 14 12 11 13 14 13 13 13 13 13 14 14 13 14 15 16 19 16 16 14 15 17 19 21
16 15 15 16 16 15 15 15 14 14 16 16 16 17 17 17 17 17 17 16 15 15 14 14 15 15 13 13 13 13 14 14 13 12 13 13 13 19 16 16 15 15 20 20 22
16 16 15 15 16 15 15 15 15 12 16 16 16 15 16 16 16 16 16 16 16 14 12 13 15 16 14 15 14 15 15 14 10 10 11 15 13 18 18 16 17 18 21 22 23
15 15 15 14 15 15 15 15 12 12 14 14 14 14 15 14 15 14 14 14 14 14 13 12 13 14 15 14 15 15 13 11 11 10 13 14 13 18 16 17 17 16 22 23 24
14 13 13 14 14 15 16 12 15 12 11 13 14 13 15 12 14 13 13 12 12 12 10 11 12 15 15 15 15 13 12 10 12 11 12 12 12 17 16 15 18 20 21 22 23
13 13 13 13 14 15 16 9 10 11 11 11 12 12 12 12 12 11 11 12 9 9 10 10 11 13 14 15 16 14 12 14 13 15 13 15 14 17 16 15 14 17 20 21 21
14 13 13 13 14 15 10 10 10 12 11 11 11 12 11 9 10 9 11 9 9 9 9 9 9 12 13 14 14 14 13 12 10 11 12 13 13 14 16 16 14 10 11 12 14
13 13 13 13 14 14 7 9 11 11 12 11 11 11 10 9 9 10 11 8 9 9 9 8 8 11 11 11 10 11 12 11 11 13 12 10 12 15 7 8 10 10 12 12 12
13 9 12 13 10 6 6 7 10 9 10 10 10 9 9 8 8 9 9 8 8 8 8 8 7 7 9 10 10 10 10 10 7 8 6 6 9 9 9 11 11 11 11 11 10
12 11 12 13 5 4 5 7 8 8 7 7 7 8 7 7 7 8 7 8 6 7 7 7 5 4 7 8 8 7 9 9 7 5 6 6 8 11 10 11 11 12 8 8 9
11 6 9 9 6 4 4 6 6 7 6 7 7 6 5 6 7 5 6 7 6 6 8 8 5 5 5 6 6 6 7 7 6 5 6 7 7 9 9 9 10 8 7 7 8
9 3 4 2 3 3 3 4 5 5 5 6 5 4 3 3 4 4 5 5 5 6 6 4 4 5 5 6 6 6 6 6 5 5 5 6 7 8 9 9 9 7 7 8 10
8 6 5 3 2 3 2 4 5 4 4 4 4 3 3 2 3 2 3 3 4 5 4 4 4 4 4 5 5 5 5 6 6 6 6 6 7 8 6 6 7 8 7 6 6
6 5 5 2 2 2 2 4 3 3 4 4 3 2 2 3 4 3 4 3 3 3 3 3 2 1 3 4 4 3 6 6 7 6 7 6 4 3 3 4 5 7 6 6 6

GFSSW_850_temp_015.txt.gz
Temp
8 8 9 10 11 11 13 14 15 15 15 16 16 17 17 18 19 19 20 19 19 20 20 20 21 21 21 21 21 20 20 20 20 19 22 20 20 21 21 21 20 21 22 22 22
8 9 10 11 12 13 14 14 14 15 15 15 16 16 17 18 19 19 19 19 19 19 20 20 20 20 20 20 20 19 18 19 19 19 20 20 20 21 20 19 19 21 22 22 21
9 10 11 12 13 13 14 14 14 15 15 15 16 16 17 18 19 18 19 19 19 19 19 19 19 19 19 19 19 17 19 17 20 20 20 20 19 21 20 19 21 23 25 22 21
11 11 12 12 13 13 13 14 14 15 15 15 16 16 17 18 19 18 18 19 19 19 19 19 19 19 17 18 18 18 18 18 20 21 20 19 20 19 20 23 24 24 24 23 21
12 12 13 13 14 14 14 14 15 15 15 16 16 17 18 18 18 18 18 19 19 19 19 18 18 18 17 17 18 17 18 19 20 20 19 20 19 20 19 22 23 23 23 22 22
12 12 13 13 14 14 15 15 15 16 16 16 17 17 18 18 18 18 18 18 18 18 18 18 18 18 18 17 18 17 18 18 19 19 19 19 19 19 20 22 23 22 22 22 22
12 12 13 13 13 14 14 15 15 15 16 16 16 17 18 18 18 18 18 18 18 18 17 17 18 18 18 17 18 18 17 16 17 18 19 18 18 18 21 21 21 23 23 22 22
13 13 14 14 14 14 15 15 15 15 16 16 16 17 18 18 18 18 18 18 18 18 17 17 17 17 17 17 18 17 16 17 17 16 18 19 20 20 20 21 21 21 22 22 22
14 14 15 15 15 15 16 16 16 16 16 16 16 17 18 17 18 18 18 17 17 17 17 17 17 17 17 16 16 14 18 15 16 16 16 17 18 18 18 18 18 20 20 20 21
14 15 15 15 15 16 16 16 16 16 16 16 16 16 17 17 17 18 18 17 17 17 17 16 16 14 13 16 17 16 15 15 15 17 15 16 16 17 18 17 17 19 20 21 21
14 15 15 15 16 16 16 16 16 16 15 16 16 16 17 17 17 17 17 17 16 16 14 14 15 15 14 14 14 14 14 15 16 16 16 17 17 17 18 16 16 17 20 22 22
14 15 16 16 16 16 16 16 15 15 15 16 16 16 16 16 17 17 17 17 16 14 13 13 14 14 13 13 13 14 14 15 15 15 14 15 16 17 17 18 19 17 18 20 22
14 15 16 16 16 16 16 15 15 15 14 16 16 16 16 16 16 17 17 16 15 13 12 14 15 12 14 13 13 13 14 14 15 15 15 14 17 18 17 17 17 17 19 20 19
15 15 16 16 16 15 15 15 15 14 13 15 16 16 16 16 16 16 17 16 15 14 12 12 13 14 13 13 14 13 14 15 15 14 16 16 18 19 20 20 16 16 18 21 23
16 16 15 16 16 16 15 15 15 14 16 15 16 17 17 16 16 16 16 16 14 14 14 15 15 14 14 15 13 15 14 14 14 14 13 16 16 21 19 19 20 21 20 21 23
16 16 15 15 15 15 15 15 15 13 16 15 15 14 15 16 15 16 16 15 15 14 12 14 14 15 15 15 14 15 15 13 11 13 14 17 16 19 20 19 19 19 21 22 20
15 15 15 15 15 15 16 15 13 14 12 12 13 12 12 12 14 13 13 12 12 12 12 11 13 14 15 15 14 14 13 13 14 13 15 15 16 19 19 20 19 18 16 15 16
14 14 14 14 14 15 15 13 15 11 11 12 12 11 12 11 12 11 12 11 10 10 10 10 13 14 14 14 14 14 14 14 14 15 16 15 15 18 18 16 12 11 11 11 12
13 14 13 14 14 15 15 9 10 10 11 10 11 10 11 10 11 11 10 9 9 9 10 10 10 13 14 13 13 13 13 13 13 14 13 15 17 18 19 14 11 12 12 12 11
13 14 13 13 14 15 10 9 10 11 10 11 11 11 10 9 10 9 10 8 9 9 8 9 9 11 12 13 13 12 12 11 12 11 12 14 15 15 16 10 11 12 12 11 10
13 14 14 14 14 14 7 8 10 10 10 10 10 10 9 8 8 9 10 7 8 8 8 8 8 10 10 11 10 10 10 11 10 11 10 10 12 10 11 11 11 12 11 10 9
13 10 13 14 11 5 6 7 9 8 9 8 9 8 7 7 7 8 8 6 6 7 6 8 7 6 8 9 10 10 9 8 6 6 6 5 5 10 11 11 11 10 11 10 9
12 11 13 14 7 4 5 7 7 7 5 6 7 6 6 7 7 7 6 6 5 5 6 6 5 5 8 8 8 8 8 7 7 5 5 5 6 10 10 9 10 9 9 9 8
12 7 10 9 5 4 5 5 6 6 5 6 5 5 4 4 6 5 5 6 5 6 7 7 5 5 5 6 6 5 5 6 6 4 5 5 6 7 8 8 6 6 6 7 7
10 3 4 2 3 3 3 4 5 4 5 5 3 3 3 3 3 3 4 4 4 5 5 4 4 5 5 5 5 5 5 5 5 5 4 5 6 7 6 4 5 5 6 7 7
9 7 5 3 3 3 2 2 4 3 3 3 3 2 2 2 3 3 3 3 3 4 5 4 3 4 3 5 5 5 5 5 6 6 7 7 6 6 4 5 6 6 6 6 6
8 7 6 1 1 2 2 3 2 3 3 4 3 2 1 2 3 3 2 2 3 3 3 3 3 3 2 4 4 3 5 6 7 7 7 5 6 5 4 6 6 6 5 6 5

GFSSW_850_temp_021.txt.gz
Temp
9 10 11 11 12 12 12 14 14 15 15 16 17 18 18 19 19 20 21 19 20 20 21 20 20 21 21 22 22 22 26 27 28 28 28 29 28 28 27 26 27 27 26 26 25
9 10 11 11 12 13 13 14 14 15 16 16 17 18 19 19 19 20 19 20 20 20 19 21 22 22 24 24 23 25 26 27 28 27 27 27 27 27 27 27 28 27 26 24 23
10 10 12 13 13 13 14 14 15 16 16 17 18 18 19 20 20 19 19 20 20 21 19 20 21 22 23 23 24 26 25 28 26 26 25 25 26 27 26 26 27 28 28 27 23
11 12 13 13 14 14 14 15 15 16 16 17 18 19 19 20 23 18 19 20 20 20 19 20 22 23 24 25 24 24 26 25 25 24 24 25 25 26 26 26 26 27 26 26 24
12 12 13 13 14 14 14 15 15 16 17 17 18 19 19 20 20 19 19 20 20 19 19 20 23 23 24 25 24 24 25 25 24 24 23 24 24 25 25 25 26 26 26 24 25
12 12 13 13 13 14 14 15 15 16 17 17 18 18 18 23 18 19 19 19 19 19 19 20 21 21 22 23 24 24 23 24 24 24 24 24 25 24 25 25 25 25 25 26 24
13 13 13 13 14 14 14 15 16 16 17 17 18 19 19 19 18 18 19 19 19 19 19 19 19 20 21 24 23 22 23 25 26 26 26 24 24 25 26 26 26 26 26 26 26
13 14 14 14 14 15 15 15 16 17 17 17 18 18 20 18 18 18 18 18 19 18 18 18 18 19 20 22 23 24 25 24 27 25 24 23 24 28 26 25 26 26 26 27 26
14 14 14 15 15 15 16 16 16 17 17 17 18 18 20 18 18 18 17 18 18 18 18 18 18 20 21 22 24 26 25 26 26 25 24 23 23 26 26 25 24 25 25 25 26
14 15 15 15 15 15 16 16 17 17 17 17 18 19 19 19 17 18 17 17 18 18 19 19 20 22 23 24 24 25 25 25 25 26 25 25 24 25 25 25 25 25 25 25 25
15 15 15 15 16 16 16 16 16 17 17 17 18 19 18 17 18 18 17 18 18 19 22 21 21 24 25 24 24 23 22 23 24 25 24 24 23 24 25 25 25 25 25 25 25
15 15 16 16 16 16 16 17 16 16 18 16 16 17 17 17 19 18 17 19 20 21 21 22 22 22 21 21 21 21 22 23 24 25 24 23 23 24 26 26 26 25 25 25 24
15 16 16 16 16 16 15 16 17 17 21 17 17 18 17 17 19 19 18 19 20 21 22 21 23 20 20 21 21 22 22 22 22 22 23 24 24 26 28 27 25 22 21 20 19
15 16 16 16 16 16 15 16 16 16 22 20 19 18 18 17 19 17 17 18 20 21 21 21 21 20 20 21 21 21 21 20 20 20 21 24 21 24 26 26 22 20 19 18 17
16 15 16 16 15 16 16 16 16 16 23 19 19 17 18 19 18 18 17 18 20 21 19 22 21 19 19 20 20 19 20 19 19 20 20 21 22 26 26 24 22 19 17 16 16
16 15 16 15 15 16 16 16 16 21 22 19 19 19 20 19 19 18 18 17 18 18 20 20 20 19 19 19 19 19 20 21 21 21 19 23 23 24 25 23 19 18 17 16 15
15 15 15 15 15 16 16 15 21 22 19 19 18 18 19 19 19 18 18 17 17 17 21 21 20 19 18 19 20 19 19 19 21 19 21 24 21 23 24 19 18 17 16 15 14
14 14 14 15 15 16 16 20 21 18 18 17 17 18 19 17 18 18 18 19 16 16 17 18 20 18 18 17 16 17 18 18 18 21 21 20 19 23 24 19 18 16 16 15 13
14 14 14 15 15 16 18 22 18 17 16 16 18 19 18 17 17 18 16 15 13 14 15 16 18 18 18 16 17 18 17 16 15 17 17 19 21 23 23 18 16 15 14 14 13
14 15 15 16 16 16 21 16 15 14 14 16 18 17 18 16 17 17 17 13 13 12 13 15 13 17 16 16 17 17 16 14 16 14 16 20 19 18 16 14 14 14 13 13 12
14 17 15 15 16 19 20 16 14 12 13 15 16 16 15 15 15 16 16 12 11 12 13 13 13 15 16 16 15 15 14 14 14 14 14 13 15 18 14 13 13 13 13 12 11
15 19 15 16 19 18 17 15 12 12 12 13 13 14 14 13 14 14 14 13 9 10 12 12 11 12 13 15 14 13 13 12 10 10 11 10 10 14 14 13 13 13 12 12 11
16 16 15 16 20 17 13 12 11 12 11 13 12 12 12 13 13 13 13 10 8 9 10 10 12 10 14 13 13 12 12 12 11 10 8 8 9 13 13 13 13 12 12 11 10
16 19 15 14 14 17 15 13 11 9 10 10 11 10 11 12 12 12 12 11 8 8 8 8 9 10 10 12 12 10 11 11 10 8 9 9 10 11 12 12 12 12 11 10 9
13 12 11 16 14 14 14 13 12 11 10 10 10 10 10 11 12 11 11 11 10 8 8 9 8 10 11 10 10 9 9 9 9 9 8 9 10 11 12 12 11 10 10 9 9
14 14 11 11 11 14 11 13 12 10 11 11 11 9 9 9 10 9 10 10 9 9 9 9 7 8 7 8 8 8 9 10 10 10 10 11 11 12 11 11 10 9 9 9 9
10 10 13 9 12 14 13 12 10 9 8 9 9 9 9 9 8 8 7 7 8 8 8 7 7 7 6 8 8 7 10 11 11 11 10 9 10 11 10 10 9 8 8 8 8

GFSSW_850_temp_024.txt.gz
Temp
9 10 11 12 12 13 13 14 14 15 16 17 18 18 19 20 20 21 20 20 20 21 21 21 21 22 22 23 22 23 22 22 24 25 25 28 27 28 28 27 27 27 27 26 25
9 11 12 12 13 14 14 14 15 16 16 17 18 18 19 20 20 21 20 20 21 21 20 21 22 22 23 24 23 23 22 24 27 26 25 26 26 27 27 27 27 27 28 27 25
10 11 11 13 14 14 14 15 15 16 17 17 18 19 19 20 20 19 20 20 21 21 20 20 21 22 24 24 24 24 23 25 25 26 25 25 25 26 26 24 27 26 27 27 25
10 11 13 14 14 14 14 15 15 16 17 18 18 19 20 20 22 20 20 20 21 21 20 21 22 23 24 24 25 23 25 25 26 25 25 24 24 24 25 25 26 26 26 26 25
11 12 13 14 14 14 15 15 16 16 17 18 18 19 20 20 19 20 20 20 20 19 20 21 23 24 23 25 25 24 24 25 25 25 24 24 24 23 24 24 25 25 25 26 26
12 13 13 13 14 14 14 15 16 16 17 17 18 19 20 22 19 19 20 19 19 19 20 21 21 21 22 23 23 24 23 23 24 24 24 24 24 24 25 25 25 26 26 25 26
13 13 14 14 14 14 15 15 16 17 17 18 18 19 19 18 19 18 19 19 20 20 20 20 19 20 22 23 23 23 22 22 24 25 25 23 22 23 25 26 26 26 26 26 26
14 14 14 14 14 15 15 16 16 17 17 18 19 19 19 19 19 19 18 19 18 18 19 18 19 19 20 22 22 23 23 22 26 25 23 23 20 23 26 25 25 25 25 26 26
14 14 14 15 15 15 15 16 17 17 18 18 18 18 19 19 19 18 18 19 18 19 18 19 19 20 21 20 21 23 22 23 25 26 25 23 21 24 25 25 25 25 25 25 26
15 15 15 15 15 16 16 17 17 18 18 18 19 19 19 19 18 18 18 18 19 19 20 19 20 20 20 21 20 21 22 22 21 24 24 22 22 23 25 25 25 25 25 25 25
15 15 15 16 16 16 17 17 17 17 18 17 19 19 19 18 19 19 18 19 19 20 21 21 20 20 21 21 21 21 21 21 22 24 23 21 21 22 24 24 24 25 21 19 18
15 15 16 16 16 16 16 17 17 17 18 17 18 18 18 18 20 19 19 20 21 20 22 21 19 21 21 21 21 21 20 21 22 23 21 20 20 22 23 22 20 19 17 17 16
15 16 16 16 16 16 16 17 17 17 19 18 18 19 18 18 20 19 19 20 21 21 22 21 22 21 21 21 21 21 21 20 19 20 21 21 21 23 20 19 18 17 16 15 15
15 16 16 16 16 16 16 17 17 18 20 19 19 19 19 18 19 18 18 18 21 21 20 21 21 21 20 20 21 19 20 19 19 18 18 20 17 19 20 18 17 17 16 15 14
15 16 16 16 15 16 17 17 17 17 21 20 20 19 19 20 19 18 18 18 19 20 20 20 21 20 19 20 19 18 19 18 18 18 17 19 18 21 20 18 17 17 16 15 14
15 15 16 16 16 16 17 17 16 19 20 19 20 20 21 20 20 19 19 18 18 18 19 19 21 20 19 19 19 19 18 18 18 18 16 19 19 20 20 17 16 16 16 15 14
15 15 15 15 16 16 17 16 19 20 20 19 19 19 20 19 20 19 19 16 16 15 18 19 20 19 18 18 19 18 16 15 18 16 17 20 18 20 16 16 15 14 14 13 13
14 15 15 15 16 16 17 19 20 20 18 19 18 19 19 18 19 19 18 17 15 15 16 17 18 18 19 17 16 16 16 15 15 17 16 18 17 18 17 15 14 13 13 13 13
14 14 14 15 16 16 16 20 16 17 17 17 19 19 18 18 17 19 16 15 13 13 13 15 18 18 18 16 16 16 15 15 14 15 14 16 19 17 15 14 13 13 13 13 12
15 16 16 16 16 16 18 16 15 15 15 17 18 17 18 17 17 18 18 13 13 13 13 14 12 16 16 16 17 16 16 13 13 13 13 16 15 15 12 12 12 12 13 12 12
15 17 16 17 17 16 19 16 14 14 14 15 16 17 16 15 16 16 16 12 12 12 12 13 12 15 15 16 14 14 13 14 13 13 11 11 12 14 12 11 11 12 13 12 12
16 19 17 17 18 19 16 16 14 14 14 14 14 14 14 14 14 15 15 13 10 10 11 11 10 10 13 15 14 13 12 13 10 10 9 7 8 13 12 12 12 12 12 12 11
17 17 17 17 19 16 14 13 12 13 12 14 13 12 13 13 13 14 13 9 9 10 9 9 10 8 13 12 13 13 13 12 11 9 8 7 8 12 12 12 12 12 12 11 10
17 18 16 16 17 17 15 14 11 10 11 12 12 12 12 13 13 12 12 11 9 9 8 8 8 9 8 10 10 10 10 11 10 7 7 8 8 10 11 11 12 11 11 10 9
15 12 12 16 15 16 16 15 13 12 11 11 11 11 11 11 12 13 12 12 11 8 9 9 8 9 10 10 9 9 9 9 8 8 7 8 9 10 11 11 11 11 10 9 8
14 14 13 13 14 16 12 14 14 12 12 12 12 11 10 10 11 10 10 10 10 10 9 9 6 8 7 8 9 9 9 9 9 9 9 10 9 11 11 11 10 9 8 8 8
11 12 13 11 14 15 13 13 12 11 10 10 10 10 10 10 8 8 7 8 8 8 8 7 7 6 5 8 8 6 9 10 10 10 10 8 8 10 8 7 7 7 7 7 6

GFSSW_850_temp_030.txt.gz
Temp
9 10 11 11 11 12 13 14 15 16 17 18 19 19 20 20 20 21 21 21 21 22 22 22 22 22 22 22 22 22 17 17 20 22 22 24 22 24 24 25 25 26 25 26 26
10 10 11 11 12 12 13 14 15 16 17 18 18 19 20 20 20 20 21 21 21 21 21 22 22 22 22 22 22 20 15 18 20 23 22 23 23 23 23 23 23 25 25 25 25
10 11 12 12 13 13 14 15 16 16 17 18 19 19 20 20 20 20 20 21 21 21 21 22 21 21 22 22 22 20 18 19 22 24 23 23 22 23 23 19 23 24 24 24 24
9 11 11 12 13 14 14 15 16 16 17 18 18 19 20 19 19 20 20 20 20 20 21 21 21 21 21 21 22 21 21 22 23 23 22 22 23 22 23 24 24 24 24 24 23
10 11 12 13 13 14 15 15 16 16 17 18 18 19 19 19 19 19 20 20 20 20 20 20 21 21 20 20 21 20 21 22 22 23 22 22 22 21 23 24 24 24 24 21 21
11 12 12 13 13 14 14 15 16 16 17 18 18 19 19 19 19 19 19 20 20 20 20 20 20 20 20 20 19 20 20 21 22 21 21 21 20 22 24 24 25 24 20 20 20
12 12 13 13 14 14 15 15 16 17 17 18 18 19 19 19 19 19 19 20 19 20 19 20 20 20 19 19 20 21 19 17 21 21 21 21 20 20 24 24 24 20 18 16 15
13 13 13 14 14 15 15 16 16 17 17 18 18 19 18 19 19 19 19 19 19 19 19 19 19 19 19 20 19 19 18 17 20 20 22 22 17 20 23 22 19 16 14 14 13
14 14 14 14 15 15 16 16 17 17 18 18 18 19 18 18 19 19 19 19 19 19 19 19 19 19 19 16 14 14 17 18 17 19 18 20 18 18 18 19 14 14 13 12 12
14 15 15 15 16 16 16 17 17 17 18 18 18 19 18 19 19 19 19 19 19 19 19 19 18 14 13 14 16 17 17 17 17 18 17 17 15 13 14 13 13 13 12 12 12
15 15 15 16 16 16 17 17 17 18 18 18 18 18 18 18 19 19 19 19 19 19 17 18 15 15 16 17 17 18 17 16 16 18 17 17 13 12 13 12 12 12 12 11 12
15 16 16 16 16 16 16 17 16 17 17 18 18 18 18 18 18 18 18 19 19 17 17 15 15 17 17 19 18 18 17 15 15 17 17 15 12 12 13 12 12 12 11 12 12
16 16 16 16 16 16 16 17 17 17 17 18 18 18 18 18 18 18 18 18 18 18 17 16 18 19 19 17 16 16 17 16 15 15 15 16 12 13 13 12 12 11 11 11 11
16 16 16 16 16 16 16 17 17 17 13 17 18 18 18 18 18 18 18 18 18 17 16 16 19 18 17 17 16 15 17 16 15 14 13 15 11 12 11 10 10 11 11 11 11
16 16 16 16 16 15 16 17 17 17 16 18 18 18 19 18 19 18 17 18 16 16 16 16 18 17 17 17 17 15 16 15 15 13 14 13 12 12 11 10 10 11 12 12 11
16 16 16 16 16 16 17 17 17 14 17 17 18 18 18 18 18 18 17 17 16 15 15 15 17 17 17 17 16 15 15 13 11 10 11 13 12 11 10 10 10 11 12 12 12
16 16 16 16 16 16 16 17 14 15 17 16 17 17 16 16 17 17 12 10 10 13 11 12 16 16 17 15 14 12 10 10 14 11 12 13 12 10 9 10 11 11 11 12 12
15 15 15 16 16 16 16 14 17 16 15 16 16 17 16 15 16 14 12 10 10 10 10 10 14 13 15 15 14 13 12 10 13 11 11 11 12 9 9 11 11 11 11 11 11
15 15 16 16 16 16 16 12 13 13 14 14 15 16 15 15 15 12 10 10 10 9 11 9 12 13 14 15 14 13 11 12 11 9 9 9 10 10 9 9 10 10 10 10 10
16 15 16 16 16 16 11 11 12 13 13 13 15 15 14 13 15 13 11 10 10 10 9 10 9 11 12 14 13 13 13 11 8 10 9 8 9 9 8 8 8 9 9 10 10
15 16 15 16 16 16 10 11 12 13 13 13 13 13 12 12 13 12 10 9 10 9 10 8 8 10 11 11 11 10 10 9 8 7 8 6 8 7 7 8 8 9 9 9 9
16 14 16 17 15 9 8 12 13 12 13 12 11 11 12 11 12 11 10 9 9 9 8 7 6 6 9 9 11 11 11 7 5 7 5 1 4 8 7 9 9 9 9 9 8
17 16 16 17 11 7 10 10 10 11 10 11 11 11 11 11 11 10 8 9 9 9 8 7 5 4 10 9 9 9 9 8 6 2 2 3 7 8 10 9 9 8 8 8 7
16 11 16 16 13 9 9 10 10 10 10 10 10 11 11 11 11 10 8 8 9 9 8 8 5 6 6 8 7 6 7 7 6 -1 5 6 8 9 8 8 7 7 6 6 6
15 11 11 9 11 11 11 10 9 10 10 10 10 10 10 10 10 10 9 8 8 9 7 6 5 5 5 6 6 6 6 6 5 5 4 7 6 7 8 5 6 6 6 6 5
14 13 13 12 12 11 9 11 10 10 9 10 10 9 9 8 9 8 8 8 8 7 5 5 4 5 3 5 5 5 5 6 6 6 6 6 6 7 8 6 6 6 6 6 6
14 13 13 10 10 9 9 11 11 9 9 9 9 8 8 8 7 7 7 7 7 5 5 4 3 2 1 3 3 3 5 5 6 7 6 5 6 6 5 5 6 6 6 5 5

GFSSW_850_temp_033.txt.gz
Temp
9 9 10 10 10 11 12 13 14 16 17 18 18 19 20 20 21 21 21 21 21 22 22 22 22 22 22 22 22 22 16 17 20 20 22 23 21 23 23 23 24 24 24 23 24
9 10 10 11 11 12 12 13 15 16 17 17 18 19 20 20 20 20 21 21 21 22 22 22 22 22 22 22 22 20 15 19 19 21 22 22 22 22 22 22 23 24 24 23 24
10 11 11 11 12 12 13 14 15 16 17 17 18 19 20 20 20 20 20 21 21 21 21 21 21 21 21 21 21 19 18 19 21 22 21 21 21 22 22 19 23 22 21 21 22
9 11 12 12 12 13 13 14 15 16 17 17 18 19 19 20 20 19 20 20 20 21 21 20 21 21 20 20 20 20 20 20 21 22 21 20 22 21 21 23 20 19 19 20 21
10 11 12 12 13 13 14 14 15 16 16 17 18 19 19 19 19 19 19 20 20 20 20 20 21 20 19 19 20 19 20 21 21 22 21 20 20 20 22 18 17 18 18 17 17
11 12 12 12 13 13 14 14 15 16 17 17 18 19 19 19 19 19 19 19 20 20 20 20 20 20 19 19 19 19 19 19 21 21 20 19 20 21 20 18 17 17 15 15 15
12 12 12 13 13 14 14 15 15 16 17 17 18 18 19 19 19 19 19 19 20 20 19 19 19 20 19 18 19 19 18 17 21 20 20 19 20 18 15 17 14 13 13 13 13
13 13 13 13 14 14 15 15 16 16 17 17 18 18 19 19 19 19 19 19 19 19 19 19 19 19 19 19 18 17 16 16 19 19 20 21 17 13 15 14 11 12 12 12 12
13 13 14 14 14 15 15 16 16 17 17 17 18 19 18 18 18 19 19 19 19 19 19 18 18 18 18 15 14 13 16 17 17 18 17 18 14 12 12 12 11 11 11 12 12
14 14 15 15 15 15 16 16 17 17 17 18 18 18 18 18 18 18 18 19 19 19 19 19 18 13 12 13 15 16 16 17 16 17 16 11 11 11 11 11 11 11 11 11 11
14 15 15 15 16 16 16 16 17 17 17 17 18 18 18 18 18 18 18 19 19 18 16 17 14 15 16 16 17 17 16 15 14 16 15 11 10 11 11 11 11 11 11 11 11
15 15 15 15 16 16 16 16 17 17 17 17 18 18 18 18 18 18 18 19 18 16 17 14 15 17 16 17 17 17 16 14 14 16 15 11 11 11 11 10 10 11 11 11 11
15 15 16 16 16 16 16 17 17 17 17 18 18 18 18 18 18 18 18 18 17 17 16 15 18 18 18 16 16 15 15 15 15 14 13 11 11 10 11 11 10 10 10 11 11
15 16 16 16 16 16 16 17 17 17 13 17 18 18 18 18 18 18 17 17 17 16 15 16 17 17 17 17 15 15 16 15 14 13 13 14 11 9 10 10 10 10 11 10 10
15 15 15 16 16 16 16 17 17 17 16 17 18 18 18 18 18 17 17 17 15 15 15 16 16 16 16 16 16 15 15 14 14 13 13 12 11 10 8 10 10 10 11 11 10
15 15 15 16 16 16 17 17 17 14 16 16 18 17 17 17 18 17 17 16 15 15 13 14 16 16 16 16 15 13 14 11 9 9 10 11 12 9 8 9 10 10 11 11 11
15 15 15 15 16 16 17 17 14 14 16 16 16 16 15 15 16 14 11 9 10 14 11 11 15 15 15 15 14 12 10 10 13 11 12 12 11 10 9 8 9 10 10 10 10
15 15 15 15 16 16 16 14 16 15 15 15 15 16 15 14 14 12 11 9 9 9 8 11 14 12 13 14 13 12 11 10 14 11 10 9 11 9 8 10 10 10 10 10 10
15 15 15 15 16 16 16 13 13 13 13 14 15 15 14 15 14 11 10 9 9 8 11 10 12 11 13 14 13 13 10 10 10 8 7 8 10 9 8 8 9 9 9 9 9
15 16 15 15 16 16 11 11 11 12 12 13 14 14 13 13 14 12 11 9 10 9 9 9 10 11 11 13 12 13 11 10 7 11 10 8 8 9 7 6 6 7 8 9 9
15 16 15 15 15 16 11 10 12 12 13 13 13 13 12 13 13 11 10 8 9 9 9 8 8 11 10 10 10 9 9 8 7 6 8 6 7 7 6 7 7 7 8 8 8
16 13 16 16 14 8 8 11 12 11 12 11 11 11 12 11 12 10 10 9 9 9 9 7 5 6 9 9 8 10 10 7 5 8 4 1 4 8 6 7 8 7 8 8 8
16 16 16 16 11 6 9 10 10 10 10 10 10 11 11 11 11 10 8 8 9 9 7 7 6 6 10 8 9 9 8 7 3 1 2 3 6 5 6 7 8 8 8 7 7
16 11 15 15 11 8 9 10 10 10 10 10 10 10 10 10 10 9 8 8 8 8 8 8 4 6 7 9 7 7 6 6 5 -1 3 5 8 9 9 6 7 7 7 7 6
15 10 11 9 10 9 10 9 9 10 10 10 9 10 10 9 9 9 8 7 7 8 7 5 5 4 4 5 5 5 6 5 4 3 4 8 5 7 7 7 7 6 6 5 5
15 13 12 10 11 11 8 10 10 9 9 10 9 9 9 9 8 8 7 7 6 6 5 4 4 4 3 4 5 4 5 5 5 5 5 5 5 7 7 7 6 6 5 5 5
14 14 14 8 9 9 9 10 10 9 9 9 9 8 8 8 8 7 7 7 7 5 4 3 3 1 1 2 3 4 5 5 4 4 5 4 6 6 4 5 5 5 4 4 4

GFSSW_850_temp_036.txt.gz
Temp
9 9 9 9 9 10 11 11 13 15 16 17 18 18 19 19 20 20 20 20 21 22 22 22 22 23 23 22 22 21 16 18 20 20 22 21 20 22 22 22 23 22 20 20 22
9 9 9 9 10 11 11 12 13 15 16 17 18 18 19 20 20 20 20 20 21 21 22 22 22 22 22 22 21 19 15 19 19 20 20 21 20 21 21 20 21 20 21 21 22
9 10 10 10 11 11 12 13 14 15 16 17 18 19 19 20 20 19 20 20 21 21 22 21 21 22 21 21 20 18 18 19 21 21 20 20 21 21 20 16 13 13 16 19 20
9 10 10 11 12 12 12 13 14 15 16 17 18 19 19 19 19 19 19 20 20 20 21 21 21 21 19 19 20 19 19 19 20 21 19 19 20 15 15 11 13 14 15 17 18
9 10 10 12 12 12 13 13 14 15 16 17 18 18 19 19 18 19 19 20 20 20 21 21 21 20 19 18 19 18 19 20 20 20 19 19 17 14 12 12 13 15 15 15 15
10 10 11 12 12 13 13 14 15 15 16 17 18 18 18 19 19 19 19 20 20 20 20 20 20 19 19 18 18 18 18 18 20 20 20 19 17 17 12 12 14 14 13 13 13
10 11 12 12 13 13 14 14 15 16 16 17 18 18 19 19 19 19 19 19 19 19 19 19 19 19 19 18 18 18 17 17 18 19 19 19 14 10 11 12 12 11 11 12 12
12 13 13 13 13 14 14 15 15 16 17 17 18 18 19 19 19 19 19 19 19 19 19 19 19 19 18 18 17 16 15 16 17 18 18 19 14 10 10 12 11 11 11 12 12
13 13 13 14 14 14 15 15 16 17 17 17 18 19 18 18 18 18 19 19 19 19 19 18 18 18 18 14 14 12 16 17 16 16 16 14 11 10 10 11 11 11 11 11 12
14 14 14 14 14 15 15 16 16 17 17 17 18 18 18 18 18 18 18 19 19 19 19 18 18 13 11 13 15 16 16 16 16 15 11 9 10 10 10 10 10 11 11 11 12
14 14 14 15 15 15 16 16 16 17 17 17 17 18 18 18 18 18 18 18 18 18 15 16 14 15 16 16 16 16 16 15 14 15 10 9 9 10 10 10 10 10 11 11 11
14 15 15 15 15 16 16 16 17 17 17 17 17 18 18 18 18 18 18 18 18 15 16 13 15 16 16 16 17 16 15 14 14 14 11 10 10 10 10 10 10 10 11 11 11
15 15 15 15 15 16 16 16 17 17 17 17 17 18 18 18 17 17 18 17 16 16 15 15 17 17 17 16 16 15 15 14 15 13 10 9 10 10 10 10 10 10 10 10 11
15 15 15 15 15 16 16 16 17 17 12 16 17 17 18 18 17 17 17 17 16 16 15 15 16 17 16 16 15 14 15 15 14 13 12 11 10 8 8 9 10 10 10 10 10
15 15 15 15 15 16 16 17 17 17 16 17 17 17 18 18 17 17 16 17 15 15 15 16 15 15 16 16 15 14 13 13 13 12 12 11 10 9 7 9 9 10 10 10 10
15 15 15 15 15 16 16 17 17 14 16 16 17 17 17 17 16 16 16 16 14 13 13 14 15 15 15 15 14 12 13 10 8 8 10 11 10 9 7 8 9 10 10 10 10
15 15 15 15 16 16 16 17 13 14 16 16 16 16 15 15 14 12 10 8 10 13 13 12 14 13 14 14 13 11 9 11 12 11 12 10 10 9 8 7 8 10 10 10 10
15 15 15 15 16 16 16 13 16 14 14 14 15 15 15 14 12 11 10 9 8 9 8 12 14 12 12 13 12 11 10 10 14 11 10 8 10 10 8 10 10 9 9 9 9
15 15 15 15 15 16 16 12 13 13 13 14 15 15 14 14 13 10 9 9 9 8 12 10 12 11 12 12 12 11 10 9 9 8 7 8 9 9 8 7 8 8 8 9 9
15 15 15 15 15 15 12 12 11 12 12 12 14 13 13 13 14 12 10 9 9 9 8 9 12 10 11 12 11 12 9 10 6 11 10 8 7 9 6 5 5 7 8 8 8
15 15 15 15 15 15 11 10 11 12 12 12 12 12 12 13 12 11 10 8 9 8 8 8 8 11 10 10 10 9 9 7 6 6 8 6 8 6 7 6 5 7 8 8 8
15 13 15 15 14 6 8 11 12 11 12 11 11 11 11 11 11 10 10 9 9 9 8 6 5 7 10 9 8 9 9 7 5 8 3 1 4 6 5 7 8 7 8 8 7
16 15 15 15 11 6 9 9 10 10 9 10 10 10 10 10 11 9 8 8 8 8 7 7 6 7 11 9 9 9 8 5 2 1 1 3 7 6 6 6 7 7 7 7 7
16 11 15 14 10 7 9 9 9 10 10 10 9 10 10 10 9 8 8 7 8 8 8 8 4 7 8 10 7 7 6 5 4 -0 3 5 8 8 6 5 7 7 7 7 6
15 10 11 9 9 8 9 9 9 10 9 9 9 10 10 10 9 9 7 6 7 8 6 5 5 4 4 4 5 5 6 5 4 4 5 9 6 8 7 5 7 7 6 6 5
15 13 11 9 10 10 8 9 9 9 9 9 10 8 9 9 9 8 6 6 6 6 6 3 4 3 4 4 4 3 4 4 5 5 4 5 5 7 7 7 6 6 5 4 4
14 14 14 7 8 9 9 9 10 9 9 9 9 7 8 8 8 8 8 7 7 4 3 2 2 1 2 2 3 5 5 4 4 4 5 4 6 6 5 5 5 5 4 4 4

GFSSW_850_temp_039.txt.gz
Temp
8 9 9 9 10 10 10 11 12 14 15 16 17 18 19 19 20 20 20 20 21 22 22 22 22 23 23 23 22 22 19 20 21 20 21 20 21 21 21 21 19 17 16 17 19
9 9 9 9 9 9 10 11 12 14 15 16 17 18 19 19 19 19 20 20 21 21 22 22 22 23 23 21 21 19 19 20 19 19 20 19 20 19 20 16 16 14 15 16 16
9 9 9 9 10 10 11 12 13 14 15 16 17 18 19 19 19 19 19 20 21 21 22 22 22 22 21 21 20 18 20 19 20 20 19 19 16 17 16 14 10 10 13 15 16
9 9 10 10 10 11 12 12 14 15 16 17 18 18 19 19 19 19 19 20 20 21 21 21 22 22 19 19 19 20 19 19 20 19 18 18 16 12 11 10 11 12 13 14 16
9 9 10 11 11 12 12 13 14 15 16 17 18 19 18 19 18 19 19 19 20 20 21 21 21 20 19 18 19 19 18 19 19 19 16 17 13 12 10 11 11 12 13 13 13
9 10 11 11 12 12 13 14 14 15 16 17 18 18 19 18 19 19 19 19 20 20 20 20 20 20 19 18 18 18 18 18 18 19 16 13 12 13 11 11 12 13 12 13 13
10 11 10 11 12 12 13 14 15 16 16 17 18 18 19 18 18 19 19 19 19 19 20 20 20 20 19 18 18 17 18 18 17 17 16 16 13 10 10 11 11 11 12 12 12
11 11 11 13 13 13 14 14 15 16 17 18 18 19 18 18 18 19 19 19 19 19 19 19 19 19 18 17 17 16 16 18 16 16 17 17 15 10 10 10 11 11 11 12 12
11 12 13 13 13 14 14 15 16 17 17 18 18 19 18 18 18 18 19 19 19 18 19 18 19 18 17 16 16 15 18 17 17 14 15 15 12 10 10 9 10 11 11 11 11
12 13 13 14 14 15 15 16 16 17 17 17 18 18 18 18 18 18 18 18 19 19 18 19 18 15 13 16 18 17 17 16 16 15 14 12 10 10 9 9 9 10 11 11 11
13 13 14 14 15 15 16 16 16 17 17 17 17 18 18 18 18 18 18 18 18 18 16 16 16 17 16 15 16 16 16 16 15 14 13 11 11 11 10 9 9 10 11 11 11
14 14 14 15 15 15 16 16 17 17 16 17 17 17 18 18 18 18 18 18 18 15 15 15 16 16 15 15 16 16 15 15 14 13 13 10 11 11 10 10 10 10 10 10 11
14 14 15 15 15 15 16 16 17 17 17 17 17 17 17 18 17 17 17 17 16 15 15 15 16 16 16 15 16 15 15 14 15 13 11 11 12 10 11 10 10 10 10 10 10
15 15 15 15 15 15 16 16 16 17 13 16 17 17 17 17 16 16 17 17 15 15 14 15 15 16 15 15 15 15 14 14 14 14 15 12 16 10 10 10 10 10 10 11 11
15 15 15 15 15 16 16 16 17 17 16 16 17 17 17 17 16 16 16 16 14 14 15 15 15 15 15 15 15 15 13 13 13 13 12 12 13 13 9 10 10 10 10 10 10
15 15 15 15 15 16 16 16 17 14 16 15 16 16 16 16 15 15 16 16 14 13 13 13 14 14 14 13 14 12 12 11 10 11 13 12 13 16 10 11 10 10 10 10 10
15 15 15 15 15 16 16 16 14 15 15 15 15 15 14 14 13 11 10 9 11 15 14 13 13 13 13 14 13 12 12 15 16 15 16 11 11 15 11 9 11 10 9 10 10
15 15 15 15 16 16 16 14 16 14 14 14 14 14 14 13 11 10 10 10 8 9 10 13 14 12 12 13 13 11 12 15 17 15 14 9 14 15 10 9 10 9 9 9 9
14 14 15 15 15 16 16 13 14 13 13 14 14 14 13 13 13 11 9 9 8 8 12 11 13 11 11 11 12 11 12 10 10 8 11 12 12 11 9 8 7 8 8 9 9
14 15 15 15 15 16 13 12 11 11 12 12 14 13 13 13 13 12 10 9 9 8 8 8 13 10 11 11 10 11 10 12 10 14 13 12 10 14 9 9 8 8 8 8 8
15 15 14 15 15 15 12 10 11 11 11 12 12 12 12 12 12 11 10 8 9 8 8 8 9 11 10 10 10 10 10 8 9 10 13 12 14 10 10 10 9 8 8 8 7
15 12 15 15 13 6 8 10 11 10 11 11 11 11 11 11 11 10 10 9 9 9 9 6 7 10 11 8 8 9 9 9 12 10 6 6 9 9 8 8 7 8 8 7 7
16 15 14 15 11 6 8 9 9 10 9 10 10 10 10 10 12 9 8 7 8 8 7 7 8 11 12 10 8 8 7 5 5 4 6 10 13 8 6 6 6 7 8 7 7
16 11 14 14 10 7 9 9 9 9 9 9 9 10 10 10 8 8 7 7 8 8 8 7 5 9 12 11 8 8 7 5 7 6 8 9 13 13 9 8 7 8 8 7 6
15 10 11 9 9 8 9 9 9 10 9 9 9 9 10 9 9 8 7 6 7 8 6 6 7 4 5 5 5 6 7 5 6 8 9 13 9 11 10 8 8 7 6 6 6
15 13 11 8 9 9 8 9 9 9 9 9 9 8 8 9 9 8 6 6 7 6 6 3 6 4 5 4 4 5 6 5 6 7 5 7 8 10 9 7 6 6 6 5 5
14 14 13 6 7 8 8 8 9 9 8 9 9 7 8 8 8 8 7 7 7 5 4 4 4 4 6 3 4 6 6 7 5 5 7 7 9 6 5 5 5 5 5 5 4

GFSSW_850_temp_045.txt.gz
Temp
9 9 9 9 9 10 10 10 11 13 14 16 17 18 19 19 20 20 21 20 21 22 22 23 23 23 23 24 23 24 28 28 26 27 25 25 27 24 24 22 20 19 18 18 18
9 9 9 9 9 10 10 11 11 13 14 16 17 18 19 19 20 21 20 21 21 22 21 22 24 24 25 25 25 27 27 26 26 26 26 25 25 23 24 23 21 20 18 18 18
9 9 9 9 10 10 10 11 12 14 14 16 17 18 19 19 19 21 20 21 21 22 22 22 22 24 26 25 25 26 26 25 24 24 23 24 23 21 24 21 18 18 18 18 18
9 9 9 9 10 10 10 11 13 14 15 16 17 18 19 19 23 19 20 21 21 22 21 22 23 25 26 27 25 26 24 24 23 22 23 24 22 19 19 17 16 16 17 18 18
9 9 9 10 10 10 11 12 13 14 15 17 18 19 19 20 20 20 20 21 21 21 21 22 25 25 26 26 25 27 24 23 21 21 21 21 21 19 17 16 16 16 16 17 17
9 9 10 10 10 11 12 12 14 14 16 17 18 19 19 22 19 19 20 20 20 20 21 22 23 23 25 25 25 24 24 23 22 21 20 21 19 19 16 16 16 16 16 16 16
9 10 10 10 11 12 12 13 15 15 16 17 18 19 19 20 19 19 19 20 20 19 20 20 21 23 24 24 22 23 24 23 22 22 21 21 20 20 17 16 17 17 16 15 15
10 10 10 11 12 12 13 14 15 15 17 18 18 19 21 19 18 19 19 19 20 21 20 21 20 21 23 22 23 24 25 24 23 22 20 20 23 19 16 17 18 18 17 15 15
10 10 11 12 12 12 14 15 15 16 17 18 18 18 20 19 19 19 18 19 19 19 20 20 20 22 21 24 25 25 26 26 22 22 23 21 23 19 16 17 17 18 17 16 15
11 11 12 12 12 14 15 15 15 16 17 18 18 20 19 20 18 19 18 18 19 19 20 20 22 24 24 25 25 26 26 26 24 22 22 22 22 19 17 17 17 18 17 16 16
12 12 12 12 14 15 15 15 16 17 17 19 20 19 19 18 19 19 19 19 20 21 23 22 23 25 26 25 24 24 24 24 25 22 20 22 22 21 17 16 17 17 17 17 16
13 12 12 14 15 15 14 16 17 18 19 17 18 18 18 19 20 19 19 20 21 23 23 23 24 23 22 22 22 23 23 24 24 21 20 22 22 22 19 17 17 17 17 17 16
13 13 14 15 15 15 14 15 18 18 22 18 18 19 19 19 20 19 19 20 22 23 23 24 22 21 21 21 22 23 22 23 22 21 21 20 22 22 20 17 17 17 17 17 16
14 15 15 15 15 15 15 17 17 18 23 20 20 19 18 19 19 17 17 18 21 22 22 23 21 21 21 22 22 22 21 20 20 20 22 21 23 22 20 17 17 16 16 16 15
15 15 15 15 15 16 16 17 17 17 22 20 20 18 18 20 19 18 17 18 21 22 21 21 20 20 20 21 21 21 19 19 19 20 21 22 20 23 21 18 18 17 16 16 15
15 14 15 15 15 16 17 17 17 21 21 19 20 20 20 19 19 18 19 18 18 20 21 21 18 20 21 19 19 18 19 19 19 20 20 23 21 25 21 21 20 18 17 16 15
14 15 15 15 16 17 17 17 22 22 20 20 20 20 21 21 20 19 19 20 20 20 21 20 20 19 18 19 19 18 20 21 21 20 23 21 20 24 23 20 21 20 18 16 15
14 15 15 16 16 17 16 21 21 21 22 19 19 20 20 20 19 19 19 20 18 18 21 22 21 19 18 19 20 20 20 21 21 23 23 19 20 22 19 18 18 18 17 15 14
14 14 14 16 16 16 18 21 22 21 20 20 19 20 20 19 19 19 19 20 17 17 19 21 21 17 16 17 17 19 19 18 20 22 20 23 22 19 18 18 17 17 16 15 14
14 15 15 16 16 16 21 21 20 17 17 18 20 20 21 20 19 19 20 16 16 14 15 18 19 17 16 16 16 17 17 19 19 20 21 24 23 22 18 18 17 17 16 14 13
15 17 15 16 16 18 21 20 17 14 15 18 19 19 20 20 19 20 19 15 14 14 14 16 18 17 16 17 20 17 18 17 18 20 20 20 22 22 21 20 18 17 16 15 14
16 19 16 16 19 20 21 18 14 15 14 16 16 18 19 18 19 19 18 16 12 13 16 15 17 19 20 15 15 16 18 19 18 20 19 17 18 22 19 18 17 18 17 16 15
18 17 16 16 20 20 16 15 15 15 15 16 16 16 16 17 17 17 16 11 11 13 15 15 18 18 18 15 15 15 18 17 18 15 15 17 19 19 17 17 16 15 15 14 14
17 19 17 16 16 20 19 18 15 12 14 14 16 15 16 16 15 16 15 11 10 12 9 11 16 17 18 18 15 17 16 16 16 16 18 19 20 21 21 18 18 17 15 14 13
16 18 16 20 19 18 18 18 17 15 14 14 15 16 17 17 16 16 15 13 11 10 11 13 15 17 16 16 16 15 15 16 15 16 16 18 18 19 18 17 16 14 13 12 11
17 17 15 16 16 18 14 18 18 15 16 16 16 16 16 17 16 16 15 15 15 12 13 13 14 13 14 15 13 13 14 15 15 15 16 16 16 18 14 14 14 14 13 12 11
16 16 16 14 18 19 19 17 16 16 13 13 15 15 15 14 13 12 12 12 13 14 13 13 13 13 14 13 14 14 16 17 17 16 15 14 16 16 15 14 13 13 12 11 10

GFSSW_850_temp_048.txt.gz
Temp
9 9 9 9 9 10 10 10 10 12 14 15 16 18 18 19 20 21 21 21 21 22 23 23 23 24 24 24 24 25 24 23 26 26 25 26 26 24 23 22 20 19 19 19 20
8 9 9 9 9 10 10 10 11 12 14 16 16 18 19 20 20 20 21 21 22 22 23 22 24 24 25 26 25 26 24 25 26 26 25 25 24 23 24 22 21 19 19 19 19
8 9 9 9 9 10 10 10 11 12 14 16 17 18 19 19 20 21 21 21 22 22 23 22 22 24 26 25 26 26 24 25 25 24 24 25 22 21 23 19 18 18 18 18 18
8 8 9 9 9 10 10 10 11 13 15 16 16 18 19 19 21 20 21 21 22 22 22 22 24 25 26 26 26 25 25 25 24 23 23 24 22 19 18 18 17 17 18 18 18
8 9 9 9 10 10 10 11 12 13 15 16 17 18 19 19 20 20 20 21 21 21 21 22 24 26 26 27 26 26 24 23 22 22 22 22 21 19 17 16 17 17 17 18 17
9 9 9 9 10 10 11 11 13 14 16 16 17 18 19 20 20 20 20 21 20 21 21 23 23 24 25 25 25 25 25 23 22 22 21 20 19 19 17 17 17 17 17 17 16
9 9 9 10 10 10 11 12 13 15 16 16 17 18 18 19 19 20 20 20 20 20 21 21 21 23 24 25 23 24 23 23 23 22 22 21 19 18 17 17 17 18 17 16 16
9 9 10 10 11 11 12 13 14 16 16 17 17 18 20 20 19 19 19 19 19 20 21 22 22 22 23 23 23 24 23 21 23 23 21 21 20 19 17 18 18 18 17 16 16
9 10 10 11 11 11 13 13 15 16 17 17 18 19 20 19 19 19 19 20 19 20 21 21 22 22 22 22 22 23 22 23 21 23 21 20 21 19 18 18 19 18 17 16 16
11 11 11 11 11 13 13 15 16 17 17 18 18 19 19 20 19 19 19 20 20 20 20 21 22 21 22 22 21 23 23 24 24 21 22 20 19 18 18 18 18 18 18 17 16
11 11 11 12 13 13 14 16 17 17 16 19 21 20 20 19 20 20 19 20 20 21 22 22 21 21 24 24 23 22 22 23 23 21 21 20 20 21 18 17 18 18 18 17 17
12 12 12 13 13 14 15 16 17 17 19 18 19 19 20 20 21 20 19 21 21 21 23 22 20 23 23 22 22 22 22 22 23 21 20 19 20 21 18 17 17 18 18 18 17
13 13 13 13 14 15 15 16 17 17 20 19 20 20 19 19 21 19 19 21 22 22 23 22 23 22 22 22 22 22 21 21 21 21 21 19 18 19 20 18 17 18 18 18 17
14 14 14 15 16 16 16 17 18 18 21 19 20 20 19 20 20 18 18 19 22 22 23 22 21 21 21 21 22 20 20 21 20 19 18 20 17 22 18 16 17 17 17 17 17
14 14 15 15 15 16 17 17 18 18 20 21 20 19 19 20 19 18 18 19 20 22 21 21 21 21 20 21 21 19 19 19 19 18 17 19 17 20 18 16 16 17 17 17 16
14 14 15 15 16 16 17 18 18 19 20 20 20 20 20 20 20 19 19 19 19 20 21 20 19 20 20 20 19 19 19 18 18 17 15 19 18 19 18 18 17 17 17 17 16
14 15 15 15 16 17 17 17 20 20 21 19 20 20 21 21 21 20 20 20 19 19 19 21 20 19 18 19 18 18 17 17 16 16 18 21 19 20 19 19 20 18 18 17 16
14 14 15 15 16 17 17 19 19 23 21 21 21 21 21 21 20 20 20 19 19 19 19 20 19 19 19 19 17 18 18 17 18 18 19 20 17 20 18 19 19 20 18 17 16
15 15 14 16 16 17 17 19 19 21 21 21 20 20 20 20 19 20 20 19 17 17 17 19 18 17 17 18 17 18 17 17 17 19 18 19 20 18 18 17 18 18 17 16 15
15 15 15 16 17 17 19 20 19 18 19 19 20 21 21 20 18 20 20 16 16 15 15 17 17 18 16 16 17 16 17 16 16 17 18 20 19 17 17 16 17 17 16 16 15
15 17 17 17 17 17 19 18 18 16 16 18 19 20 20 20 20 20 19 15 15 15 15 16 17 16 16 15 18 15 16 16 16 16 16 15 17 20 18 18 15 17 17 16 15
16 18 16 17 17 20 20 18 16 16 15 17 17 18 19 19 19 19 18 15 12 14 16 14 14 16 18 16 15 16 17 18 15 16 15 13 14 17 16 17 17 17 17 16 15
17 17 16 16 19 20 17 16 16 16 17 17 17 16 17 18 17 17 16 11 11 13 13 13 15 15 14 15 15 15 17 16 15 13 12 11 14 16 17 17 17 16 15 15 14
17 18 17 16 18 19 19 18 16 13 15 16 17 16 16 17 16 16 15 12 11 12 11 11 14 15 14 16 15 15 16 17 15 10 13 14 16 17 16 15 15 15 14 13 13
17 18 17 19 19 20 19 19 17 15 15 15 16 16 17 17 17 16 16 12 11 10 12 12 13 14 15 15 15 15 15 15 14 14 13 14 14 15 14 13 14 15 14 13 12
16 17 17 18 18 19 14 18 18 16 16 16 16 17 17 16 15 16 16 16 15 11 13 12 12 13 12 16 14 13 13 13 14 14 14 14 14 14 15 15 15 14 13 13 12
16 16 16 16 19 19 18 18 18 16 14 15 16 16 16 13 13 13 13 13 13 14 12 13 11 11 11 14 13 12 15 15 14 15 15 13 13 15 13 13 13 13 12 12 11

GFSSW_850_temp_051.txt.gz
Temp
9 9 9 9 10 9 10 10 11 11 13 14 16 17 17 19 20 21 20 21 21 22 23 24 24 24 24 24 25 24 19 20 22 23 23 24 23 23 21 20 19 18 18 19 19
9 9 9 9 9 9 10 10 10 11 13 14 16 17 17 19 20 20 20 21 22 22 22 23 24 24 24 25 25 23 18 23 23 23 23 23 23 22 21 19 18 18 18 19 19
8 8 9 9 9 9 10 10 10 11 13 14 16 17 17 19 20 20 21 21 21 23 23 23 24 24 25 25 25 24 20 23 22 23 23 22 21 21 19 17 18 18 18 18 18
8 8 9 9 9 9 10 10 11 11 13 15 16 17 18 18 19 20 21 21 22 22 22 23 23 24 24 24 26 22 23 24 23 23 23 22 21 18 18 17 18 18 18 18 18
8 8 9 9 9 10 10 10 11 12 14 15 16 17 17 18 19 20 21 21 21 22 22 23 23 24 23 24 25 22 23 23 22 22 22 22 19 18 16 17 17 17 18 17 17
8 8 9 9 9 10 10 10 11 12 14 15 16 17 17 18 19 20 21 21 21 21 21 22 22 23 24 24 23 24 23 22 22 21 21 19 18 19 17 16 17 17 17 17 17
8 8 9 9 10 10 10 11 12 13 14 15 17 17 17 19 20 20 20 21 21 21 21 22 23 23 24 22 24 23 21 20 20 21 20 20 17 16 18 17 17 17 16 16 16
8 9 9 9 10 10 11 11 13 14 14 16 17 17 18 19 20 20 20 20 21 21 22 22 22 23 23 23 23 22 21 18 19 20 20 20 17 16 17 17 17 16 16 16 16
9 9 9 10 11 11 11 12 14 14 15 17 17 17 18 19 19 20 20 20 20 20 21 22 22 22 22 19 18 19 18 18 20 20 18 18 17 16 17 17 17 16 16 16 16
10 10 10 11 11 12 13 14 15 15 16 17 17 15 18 19 20 20 20 20 20 20 21 21 21 18 17 16 17 19 20 21 19 19 17 17 16 15 17 17 17 17 16 16 15
11 11 11 11 12 13 14 14 15 16 17 18 19 20 19 20 20 19 20 20 20 20 19 21 17 17 18 19 20 21 20 19 20 20 19 17 16 16 16 17 17 17 16 16 16
11 11 12 12 13 14 14 15 16 17 18 19 19 20 20 20 20 19 20 20 20 19 20 18 18 20 21 21 21 20 20 18 19 19 19 17 17 16 15 16 17 17 17 16 16
12 12 13 13 14 14 14 15 16 18 18 19 19 19 19 20 19 19 20 20 20 20 20 18 20 21 21 21 21 20 19 18 19 19 18 17 15 17 15 15 17 17 18 17 16
13 13 14 14 14 15 15 16 17 18 14 17 19 19 19 19 18 19 19 19 20 20 20 20 20 20 20 20 20 19 18 18 18 16 15 18 13 15 14 13 14 16 17 17 16
13 14 14 14 15 15 16 17 18 18 15 18 19 19 19 19 19 18 19 19 19 18 18 18 19 19 19 19 19 18 18 18 18 16 15 15 14 13 13 14 13 14 17 17 17
14 14 14 14 15 16 16 17 18 15 17 18 18 18 18 20 19 18 19 19 19 18 19 18 19 19 18 18 18 18 18 16 16 13 12 14 14 14 14 15 14 14 17 17 17
14 14 14 14 15 16 17 17 14 15 19 18 18 18 18 18 18 18 17 17 16 17 17 18 17 17 18 17 17 17 14 12 14 12 13 17 15 15 17 16 16 14 16 17 16
14 14 14 15 15 16 17 14 16 19 18 19 19 19 18 19 19 18 18 16 16 17 15 16 16 16 18 17 16 15 14 12 16 14 15 16 16 16 15 17 18 18 18 17 16
15 15 15 16 16 17 17 13 15 17 19 19 19 18 18 18 18 18 17 15 13 13 15 14 15 16 15 16 16 16 15 15 15 14 13 14 16 16 15 16 16 15 16 16 16
15 15 16 16 16 17 13 15 15 17 17 18 18 17 17 17 17 16 16 14 13 14 14 15 15 16 15 15 16 15 15 14 11 14 15 14 16 15 15 15 15 14 15 16 16
15 16 16 16 16 16 13 15 15 16 16 17 16 18 19 18 18 17 15 13 13 14 14 14 13 15 15 14 13 13 13 14 12 11 12 12 13 15 15 14 14 14 16 16 16
15 13 16 16 15 14 13 16 16 15 16 16 16 17 16 17 18 17 14 12 12 12 14 12 11 12 14 14 14 15 15 13 10 13 10 7 10 14 12 14 16 15 15 15 15
15 16 16 16 13 11 14 14 14 15 15 15 16 15 16 16 16 15 11 11 11 11 11 11 11 11 13 13 14 15 15 15 11 7 10 8 11 13 14 15 16 15 15 14 14
16 12 16 16 17 16 15 14 13 14 14 15 15 15 15 15 15 14 11 11 11 11 11 11 10 11 10 13 13 14 15 15 12 5 9 9 12 13 12 13 13 14 14 14 13
16 13 15 12 14 16 17 16 14 13 14 15 14 15 15 15 14 14 11 10 10 11 11 9 11 12 12 12 13 13 13 13 12 11 11 13 12 12 12 13 14 14 13 12 12
15 16 16 17 18 16 14 16 15 15 14 14 14 14 15 13 13 14 13 12 11 9 11 9 10 11 10 13 13 12 11 11 11 12 11 11 11 12 13 13 12 12 12 12 12
15 16 16 15 15 13 13 16 15 13 14 14 14 14 13 11 12 12 12 12 11 10 9 9 8 7 8 9 10 10 12 13 13 13 13 12 11 11 10 11 11 11 12 11 10

GFSSW_850_temp_057.txt.gz
Temp
9 9 9 9 10 9 9 10 10 10 11 12 13 14 16 18 18 19 20 21 21 22 22 23 23 23 24 24 24 23 17 19 20 19 22 22 21 20 19 19 19 19 18 18 18
8 9 9 9 9 9 9 10 10 10 10 11 13 14 16 17 19 19 20 20 21 21 22 23 23 24 24 24 24 20 18 20 20 21 21 22 21 20 19 18 17 17 17 18 17
8 8 8 9 9 9 9 9 9 10 10 11 13 14 15 17 19 20 21 20 21 22 22 23 23 24 23 24 24 21 20 20 22 22 22 21 20 19 18 17 18 17 17 17 17
8 8 8 8 9 9 9 9 9 10 10 11 12 14 15 16 18 20 20 21 21 22 22 22 23 23 22 22 24 23 22 22 22 22 22 20 19 18 18 19 19 18 18 17 17
7 7 8 8 8 8 9 9 9 10 10 11 12 14 15 16 19 20 20 21 21 21 21 23 23 22 22 22 23 22 21 21 21 21 21 20 18 19 18 18 18 17 17 17 17
7 7 8 8 8 8 9 9 9 10 11 11 12 14 15 15 20 20 20 20 20 21 21 22 23 22 22 22 22 22 21 20 20 20 20 19 17 18 17 17 17 17 17 17 17
6 7 8 8 8 9 9 9 10 10 11 12 12 14 14 19 19 20 19 20 20 21 21 22 23 24 22 22 22 21 21 19 19 20 19 19 17 15 18 17 16 17 16 16 16
6 7 7 8 8 9 9 10 10 11 12 12 13 14 17 19 19 20 19 20 20 21 21 21 22 22 21 22 21 19 17 18 19 18 19 19 17 18 17 17 16 16 16 16 16
8 8 8 8 9 9 10 10 10 12 12 12 13 14 17 19 19 19 19 20 20 21 21 21 21 21 21 17 17 16 18 17 17 17 17 17 17 17 16 16 16 15 16 16 15
9 8 8 9 9 10 10 10 11 12 12 13 13 14 18 19 19 19 19 19 20 20 20 20 20 17 15 17 17 18 17 17 18 18 16 16 14 15 15 15 16 15 15 15 15
9 9 9 9 9 10 10 11 12 12 12 16 17 18 18 19 19 19 19 19 20 20 18 19 17 17 17 17 19 18 18 19 18 18 16 14 14 14 15 14 14 15 15 15 15
10 10 10 10 10 10 11 12 13 14 16 17 17 18 19 19 19 19 19 19 19 18 18 17 17 18 18 18 19 19 19 17 17 18 16 16 15 15 14 13 14 15 14 15 15
10 11 11 11 11 12 13 13 14 15 16 18 18 19 19 19 18 18 19 19 19 18 18 17 19 19 19 19 19 18 18 17 17 16 16 15 14 15 15 14 14 14 15 15 15
11 11 11 12 12 13 13 14 14 15 12 16 17 18 19 19 18 18 18 19 18 18 17 18 19 19 19 19 17 18 17 18 17 15 15 15 13 13 13 11 12 12 14 15 15
12 12 13 12 12 13 14 14 15 15 14 16 16 18 18 19 18 18 18 19 17 18 17 18 18 18 18 18 18 17 16 16 16 13 14 13 12 13 12 14 13 11 13 15 15
13 13 13 13 13 14 14 15 15 13 15 16 17 17 17 18 17 18 18 18 18 16 16 17 18 17 18 16 16 16 15 12 10 10 11 13 13 13 13 14 12 13 14 15 16
14 13 13 14 14 14 15 16 13 14 17 16 16 16 16 16 17 17 16 14 14 15 16 15 16 16 17 17 15 14 13 12 13 12 12 13 12 13 13 14 13 12 15 16 16
14 14 14 15 15 15 16 13 16 16 16 17 16 15 16 16 17 16 15 13 13 14 12 14 15 16 15 16 15 14 13 11 15 13 13 12 13 15 14 14 13 14 15 16 16
14 14 14 15 15 15 15 13 14 16 16 17 17 16 16 17 16 16 14 13 13 12 14 13 15 15 14 15 15 14 13 12 11 10 11 11 13 15 13 12 13 14 15 16 16
14 14 15 15 15 15 12 13 14 15 15 17 16 16 15 16 16 15 14 13 13 13 13 13 14 14 14 15 13 14 12 12 9 14 14 11 12 12 12 13 12 13 16 16 16
14 14 15 15 15 15 12 12 14 15 15 16 16 16 15 15 14 14 14 11 11 12 13 13 12 14 14 13 12 12 12 10 9 9 11 11 11 11 13 13 14 14 14 14 15
14 11 15 15 13 8 11 14 15 14 15 15 15 15 15 16 15 14 13 12 11 11 13 11 9 11 13 13 13 12 12 10 9 12 7 5 9 11 10 11 12 12 13 13 13
14 14 14 14 11 9 11 13 13 14 13 15 14 15 14 14 14 12 11 10 11 11 11 10 9 10 12 12 12 13 12 9 7 5 8 7 10 11 11 12 12 12 12 12 12
14 11 14 14 13 10 12 13 13 13 13 14 14 14 14 14 12 10 10 10 10 10 10 10 8 10 10 13 11 13 13 11 9 4 8 7 10 12 10 9 10 11 11 11 11
14 11 12 10 12 11 13 12 12 13 13 14 14 14 14 13 13 11 10 9 10 10 9 8 10 9 10 10 10 11 11 11 10 9 10 11 9 10 9 8 10 10 11 11 10
14 13 13 12 13 12 11 12 12 12 12 13 13 13 13 13 13 11 10 10 11 9 10 6 9 9 11 9 9 10 10 9 9 10 8 9 9 8 9 10 10 10 10 10 9
14 15 14 10 10 11 11 12 12 12 12 12 13 11 12 11 11 11 11 10 10 8 7 7 7 6 9 6 8 9 11 11 11 10 10 9 9 8 9 9 9 9 9 9 8